Flag for Switzerland Weather past 2 weeks in Affoltern am Albis, Zurich, Switzerland

Now
44 °F

Quite cool.


Feels Like: 44 °F
Forecast: 32 / 57 °F
Wind: 2 mph from East

Location: Zurich Town / Ville.

Current Time: Apr 20, 2015 at 1:36:28 AM

Latest Report: Apr 20, 2015 at 1:00 AM


Visibility: N/A

Pressure: 30.16 "Hg

Humidity: 61%

Dew point: 31 °F

Location of Affoltern am AlbisLocation

Historic Weather in Affoltern am Albis — Graph

°F

Affoltern am Albis temperature yesterday

Maximum temperature yesterday: 61 °F (at 5:00 PM)
Minimum temperature yesterday: 36 °F (at 7:00 AM)
Average temperature yesterday: 48 °F

Past Weeks' High & Low Weather Summary

 TemperatureHumidityPressure
High72 °F (Apr 15, 5:00 PM)96% (Apr 17, 10:00 PM)30.61 "Hg (Apr 17, 10:00 PM)
Low30 °F (Apr 6, 7:00 AM)19% (Apr 8, 6:00 PM)29.92 "Hg (Apr 16, 4:00 PM)
Average51 °F56%30.25 "Hg
* Reported Midnight between Apr 4 and Apr 5 — Midnight between Apr 19 and Apr 20, Affoltern am Albis, Weather by CustomWeather, © 2015

Note: Actual official high and low records may vary slightly from our data, if they occured in-between our weather recording intervals... More about our weather records

Advertising

Affoltern am Albis weather history for previous 24 hours

 ConditionsComfort  
Time TempWeatherWind HumidityBarometerVisibility
12:00 AM
Mon, Apr 20
49 °FCool.12 mph47%30.13 "HgN/A
11:00 PM
Sun, Apr 19
51 °FCool.12 mph47%30.11 "HgN/A
10:00 PM52 °FCool.10 mph46%30.08 "HgN/A
9:00 PM53 °FCool.6 mph43%30.06 "HgN/A
8:00 PM56 °FPassing clouds.3 mph34%30.02 "HgN/A
7:00 PM60 °FRefreshingly cool.6 mph30%30.00 "HgN/A
6:00 PM60 °FRefreshingly cool.6 mph29%29.98 "HgN/A
5:00 PM61 °FRefreshingly cool.7 mph31%29.97 "HgN/A
4:00 PM59 °FRefreshingly cool.8 mph31%29.98 "HgN/A
3:00 PM59 °FRefreshingly cool.7 mph35%29.99 "HgN/A
2:00 PM57 °FPassing clouds.8 mph40%30.01 "HgN/A
1:00 PM53 °FCool.7 mph44%30.03 "HgN/A
12:00 PM51 °FCool.8 mph48%30.04 "HgN/A
11:00 AM47 °FCool.6 mph52%30.06 "HgN/A
10:00 AM44 °FQuite cool.8 mph55%30.06 "HgN/A
9:00 AM41 °FQuite cool.12 mph64%30.07 "HgN/A
8:00 AM38 °FChilly.10 mph68%30.08 "HgN/A
7:00 AM36 °FChilly.2 mph70%30.09 "HgN/A
6:00 AM37 °FChilly.5 mph68%30.10 "HgN/A
5:00 AM37 °FChilly.8 mph67%30.11 "HgN/A
4:00 AM38 °FChilly.7 mph66%30.12 "HgN/A
3:00 AM38 °FChilly.5 mph63%30.13 "HgN/A
2:00 AM40 °FChilly.8 mph62%30.14 "HgN/A
1:00 AM41 °FQuite cool.5 mph59%30.14 "HgN/A
Weather by CustomWeather, © 2015

See weather overviewHow to use our weather pages